Weather History for Brownsville, TX

Change the Weather History Date:

Monday, April 15, 2013

  Actual Average Record
Temperature  
Mean Temperature 81 °F 75 °F  
Max Temperature 90 °F 84 °F 97 °F (1879)
Min Temperature 71 °F 66 °F 37 °F (1903)
Degree Days  
Heating Degree Days 0 0  
Month to date heating degree days 2 6  
Since 1 July heating degree days 319 552  
Cooling Degree Days 16 10  
Month to date cooling degree days 134 133  
Year to date cooling degree days 521 448  
Growing Degree Days 30 (Base 50)    
Moisture  
Dew Point 70 °F    
Average Humidity 72    
Maximum Humidity 93    
Minimum Humidity 50    
Precipitation  
Precipitation 0.00 in 0.05 in 0.38 in (1926)
Month to date precipitation 0.01 0.76  
Year to date precipitation 1.77 4.34  
Sea Level Pressure  
Sea Level Pressure 29.74 in    
Wind  
Wind Speed 16 mph (SSE)    
Max Wind Speed 26 mph    
Max Gust Speed 36 mph    
Visibility 7 miles    
Events      
T = Trace of Precipitation, MM = Missing Value Source: NWS Daily Summary

Daily Weather History Graph

Daily Weather History Graph

Search for Another Location

Airport:

Trip Planner

Search our weather history database for the weather conditions in past years. The results will help you decide how hot, cold, wet, or windy it might be!

Date:

Astronomy

Apr. 15, 2013 Rise Set
Actual Time 7:06 AM CDT 7:53 PM CDT
Civil Twilight 6:42 AM CDT 8:16 PM CDT
Nautical Twilight 6:15 AM CDT 8:44 PM CDT
Astronomical Twilight 5:46 AM CDT 9:12 PM CDT
Moon 10:50 AM CDT (4/15) No Moon Set
Length of Visible Light 13h 33m
Length of Day
12h 46m
Waxing Crescent, 25% of the Moon is Illuminated
Apr 15
Waxing Crescent
Apr 18
First Quarter
Apr 25
Full
May 2
Last Quarter
May 9
New

Hourly Weather History & Observations

Time (CDT) Temp. Heat Index Dew Point Humidity Pressure Visibility Wind Dir Wind Speed Gust Speed Precip Events Conditions
12:35 AM 73.4 °F - 69.8 °F 88% 29.76 in 10.0 mi SSE 15.0 mph - N/A   Overcast
12:53 AM 73.0 °F - 70.0 °F 90% 29.75 in 10.0 mi SSE 12.7 mph - N/A   Overcast
1:18 AM 73.4 °F - 71.6 °F 94% 29.76 in 10.0 mi SSE 11.5 mph - N/A   Overcast
1:53 AM 73.9 °F - 70.0 °F 87% 29.75 in 9.0 mi SSE 11.5 mph - N/A   Overcast
2:53 AM 73.9 °F - 70.0 °F 87% 29.74 in 9.0 mi SSE 12.7 mph - N/A   Overcast
3:53 AM 73.9 °F - 69.1 °F 85% 29.74 in 9.0 mi SSE 11.5 mph - N/A   Overcast
4:53 AM 73.0 °F - 70.0 °F 90% 29.73 in 8.0 mi SSE 10.4 mph - N/A   Overcast
5:41 AM 71.6 °F - 69.8 °F 94% 29.73 in 7.0 mi SSE 10.4 mph - N/A   Scattered Clouds
5:49 AM 71.6 °F - 69.8 °F 94% 29.73 in 7.0 mi SSE 10.4 mph - N/A   Mostly Cloudy
5:53 AM 72.0 °F - 70.0 °F 93% 29.73 in 7.0 mi SSE 10.4 mph - N/A   Mostly Cloudy
6:21 AM 71.6 °F - 69.8 °F 94% 29.73 in 6.0 mi SSE 10.4 mph - N/A   Scattered Clouds
6:53 AM 71.1 °F - 70.0 °F 96% 29.74 in 6.0 mi SSE 8.1 mph - N/A   Partly Cloudy
7:25 AM 71.6 °F - 69.8 °F 94% 29.75 in 4.0 mi SSE 10.4 mph - N/A   Scattered Clouds
7:34 AM 71.6 °F - 71.6 °F 100% 29.75 in 4.0 mi SSE 10.4 mph - N/A   Mostly Cloudy
7:53 AM 73.0 °F - 71.1 °F 93% 29.76 in 4.0 mi SSE 11.5 mph - N/A   Overcast
8:49 AM 75.2 °F - 71.6 °F 89% 29.76 in 6.0 mi SE 15.0 mph - N/A   Haze
8:53 AM 75.9 °F - 71.1 °F 85% 29.76 in 6.0 mi SSE 12.7 mph - N/A   Haze
9:53 AM 81.0 °F 84.1 °F 69.1 °F 67% 29.77 in 7.0 mi SE 19.6 mph - N/A   Partly Cloudy
10:53 AM 82.9 °F 86.5 °F 69.1 °F 63% 29.78 in 7.0 mi SE 20.7 mph 26.5 mph N/A   Clear
11:53 AM 84.9 °F 87.6 °F 66.9 °F 55% 29.77 in 8.0 mi SSE 21.9 mph 29.9 mph N/A   Clear
12:53 PM 87.1 °F 89.9 °F 66.9 °F 51% 29.76 in 8.0 mi SE 23.0 mph 32.2 mph N/A   Clear
1:53 PM 88.0 °F 91.4 °F 68.0 °F 51% 29.73 in 8.0 mi SSE 21.9 mph 35.7 mph N/A   Clear
2:53 PM 88.0 °F 91.4 °F 68.0 °F 51% 29.71 in 7.0 mi SE 23.0 mph 28.8 mph N/A   Clear
3:53 PM 88.0 °F 92.1 °F 69.1 °F 53% 29.70 in 6.0 mi SE 23.0 mph 28.8 mph N/A   Haze
4:14 PM 87.8 °F 92.6 °F 69.8 °F 55% 29.68 in 6.0 mi SE 19.6 mph - N/A   Haze
4:21 PM 87.8 °F 91.4 °F 68.0 °F 52% 29.69 in 7.0 mi SE 20.7 mph 27.6 mph N/A   Partly Cloudy
4:53 PM 87.1 °F 90.6 °F 68.0 °F 53% 29.67 in 8.0 mi SE 19.6 mph 28.8 mph N/A   Clear
5:53 PM 84.0 °F 86.5 °F 66.9 °F 56% 29.67 in 8.0 mi SSE 20.7 mph - N/A   Clear
6:53 PM 81.0 °F 84.1 °F 69.1 °F 67% 29.68 in 7.0 mi SE 19.6 mph - N/A   Clear
7:53 PM 75.9 °F - 71.1 °F 85% 29.72 in 6.0 mi SE 16.1 mph - N/A   Haze
8:29 PM 75.2 °F - 71.6 °F 89% 29.73 in 6.0 mi SSE 12.7 mph - N/A   Mostly Cloudy
8:53 PM 75.0 °F - 72.0 °F 90% 29.73 in 6.0 mi SE 12.7 mph 21.9 mph N/A   Overcast
9:07 PM 75.2 °F - 71.6 °F 89% 29.75 in 6.0 mi SSE 13.8 mph - N/A   Overcast
9:53 PM 75.0 °F - 72.0 °F 90% 29.76 in 6.0 mi SSE 15.0 mph 23.0 mph N/A   Overcast
10:53 PM 75.0 °F - 72.0 °F 90% 29.80 in 6.0 mi SSE 15.0 mph - N/A   Overcast
11:02 PM 75.2 °F - 71.6 °F 89% 29.81 in 6.0 mi SSE 16.1 mph - N/A   Overcast
11:53 PM 75.0 °F - 72.0 °F 90% 29.80 in 6.0 mi SSE 12.7 mph 21.9 mph N/A   Overcast